map of KVD home
KVD - Airport
Location
City:  Ganja, Göygöl, Azerbaijan
Near (Alt.):Gyandzha
Name:Ganja International Airport
ICAO:UBBG
IATA:KVD

Details
Type:Airport (Aerodrome, Airfield)
Use:Public/Civil, International (customs port of entry)
Latitude:40°44'16"N (40.737678)
Longitude:46°19'03"E (46.317581)
Elevation:1083 ft (330 m)
Variation:6.34°E (WMM2015 magnetic declination)
0.07° annual change
Runways:1
Longest:8217 × 144 ft (2505 × 44 m), paved

Time
Time Zone:UTC+4 (DST+5)

Weather
METAR:UBBG 230800Z 29006KT 230V340 9999 FEW100 26/13 Q1015 R30/CLRD// NOSIG
TAF:UBBG 222300Z 2300/2324 VRB04KT 9999 SCT040 BKN080 TX26/2312Z TN18/2302Z
BECMG 2309/2311 08008KT
TEMPO 2310/2316 -TSRA SCT030CB BKN060

Related Locations
Nearby:
Farthest:GMR: 11211 mi / 18043 km
Mangareva [Totegegie], Gambier Islands, PF

Find:

   beyond  
but within

Other Information
Maps:
NOTAMs:
Links:
Sources:

  
flag of Azerbaijan   

Sectional Chart

Flight Planning
at skyvector.com

Satellite Image

Google Maps Satellite view

 

Copyright © 2004-2017 Karl L. Swartz. All rights reserved.
The Great Circle Mapper name and logo are trademarks of the Great Circle Mapper.
All other trademarks mentioned herein belong to their respective owners.
Please see credits for attibutions and further copyright information.

  Follow gcmap on Facebook Follow gcmap on Twitter Follow gcmap on Google+ GCmap on LinkedIn

hCard Microformat

Geo Microformat